Orbital Elements at Epoch 2459200.5 (2020-Dec-17.0) TDB
Reference: JPL 16 (heliocentric ecliptic J2000)
Element | Value | Uncertainty (1-sigma) | Units |
e | .2302703781931442 | 4.7968e-08 | |
a | 2.68148736631015 | 1.0713e-08 | au |
q | 2.064020256349774 | 1.3141e-07 | au |
i | 7.700374036959418 | 4.5556e-06 | deg |
node | 65.73715447361846 | 3.4829e-05 | deg |
peri | 323.4710032674998 | 3.6332e-05 | deg |
M | 85.80692096167917 | 9.0012e-06 | deg |
tp | 2458818.219736101579 (2019-Nov-30.71973610) | 3.965e-05 | TDB |
period | 1603.843762962807 4.39 | 9.6117e-06 2.632e-08 | d yr |
n | .224460766262523 | 1.3452e-09 | deg/d |
Q | 3.298954476270526 | 1.318e-08 | au |
|
| | Orbit Determination Parameters
Additional Information
|